Starlink 36115

operational
NORAD ID: 66946 Int'l Des: 2025-286 Owner: SPXS Country: US Constellation: starlink
LEOCIRCULAR

Über Starlink 36115

Beschreibung wird geladen...

Live-Position

3D-Globus wird geladen...

Nächste Überflüge

Höhenverlauf

Altitude vs Time

uPlot chart will show altitude changes over time

Zweizeiliger Elementsatz

1 66946U 25286X 25347.58336806 -.01292619 51316-3 -29056-2 0 9999
2 66946 53.1566 46.3859 0000882 57.4523 252.6435 15.97073319 2125
Epoch: 13. Dez. 2025 • Age: 18 hours

Aktueller Status

Höhe 289.6 km
Geschwindigkeit 7.74 km/s
Subsatellitenpunkt 34.58°N, 136.37°W
Startdatum 7. Dez. 2025
Alter 6 days
Typ internet

Technische Details

Klassifizierung Payload
Masse 575.00 kg
Trockenmasse 530.00 kg
Gesamtmasse 575.00 kg
Länge 0.30 m
Durchmesser 4.10 m
Spannweite 29.00 m
Form Box + pan
Hersteller SPXS
Bus-Typ Starlink V2MO
Phasenstatus In Orbit
Besitzer/Staat SPXS/US

Große Konstellationen

Loading constellations...